Precipitable_Water
0.87 0.95 1.03 1.09 1.12 1.16 1.20 1.25 1.28 1.31 1.34 1.23 1.11 1.04 0.98 1.02 1.00 0.93 0.88 0.83 0.79 0.73 0.69 0.66 0.63 0.59 0.56 0.54 0.50 0.49 0.48 0.45
0.90 0.98 1.04 1.08 1.16 1.19 1.24 1.24 1.23 1.17 1.09 1.00 0.91 0.86 0.89 0.87 0.77 0.71 0.69 0.67 0.66 0.65 0.62 0.59 0.57 0.54 0.53 0.50 0.47 0.44 0.43 0.46
0.83 0.91 1.00 1.06 1.12 1.11 1.06 1.01 0.96 0.92 0.88 0.85 0.85 0.81 0.71 0.68 0.68 0.67 0.66 0.65 0.63 0.61 0.61 0.59 0.58 0.55 0.53 0.49 0.44 0.40 0.42 0.42
0.81 0.86 0.86 0.86 0.80 0.77 0.75 0.76 0.78 0.77 0.75 0.73 0.72 0.73 0.71 0.65 0.63 0.62 0.63 0.64 0.62 0.60 0.59 0.56 0.54 0.52 0.45 0.43 0.41 0.38 0.33 0.38
0.69 0.65 0.65 0.67 0.69 0.70 0.71 0.72 0.69 0.71 0.72 0.68 0.64 0.62 0.61 0.65 0.64 0.65 0.65 0.63 0.61 0.59 0.56 0.52 0.47 0.45 0.42 0.40 0.39 0.37 0.35 0.31
0.57 0.59 0.63 0.68 0.69 0.71 0.72 0.70 0.73 0.71 0.69 0.68 0.66 0.66 0.67 0.65 0.64 0.63 0.62 0.62 0.59 0.54 0.50 0.44 0.39 0.38 0.38 0.36 0.34 0.32 0.35 0.33
0.63 0.67 0.69 0.70 0.68 0.68 0.68 0.68 0.70 0.72 0.73 0.73 0.70 0.67 0.62 0.59 0.59 0.57 0.55 0.54 0.49 0.45 0.40 0.37 0.37 0.37 0.38 0.40 0.38 0.39 0.33 0.31
0.63 0.66 0.70 0.66 0.63 0.66 0.68 0.70 0.71 0.73 0.72 0.70 0.66 0.61 0.58 0.55 0.49 0.44 0.40 0.35 0.31 0.31 0.36 0.36 0.40 0.40 0.41 0.43 0.41 0.37 0.31 0.28
0.65 0.69 0.66 0.63 0.65 0.67 0.69 0.69 0.68 0.67 0.64 0.59 0.55 0.51 0.46 0.38 0.34 0.30 0.26 0.24 0.23 0.26 0.31 0.37 0.41 0.44 0.42 0.46 0.40 0.35 0.31 0.28
0.65 0.66 0.64 0.64 0.65 0.67 0.65 0.63 0.62 0.59 0.54 0.53 0.51 0.43 0.36 0.33 0.30 0.26 0.23 0.22 0.25 0.29 0.35 0.38 0.43 0.45 0.42 0.41 0.35 0.28 0.25 0.25
0.64 0.62 0.63 0.65 0.66 0.65 0.63 0.60 0.59 0.57 0.56 0.52 0.42 0.38 0.34 0.31 0.28 0.24 0.23 0.23 0.28 0.34 0.38 0.42 0.45 0.41 0.36 0.31 0.27 0.26 0.24 0.25
0.61 0.61 0.63 0.65 0.65 0.64 0.63 0.63 0.65 0.56 0.48 0.43 0.39 0.36 0.33 0.31 0.28 0.25 0.24 0.25 0.28 0.34 0.40 0.42 0.39 0.35 0.37 0.27 0.25 0.25 0.24 0.24
0.61 0.61 0.62 0.62 0.61 0.62 0.64 0.64 0.54 0.51 0.44 0.41 0.38 0.36 0.33 0.31 0.29 0.27 0.27 0.26 0.29 0.34 0.37 0.37 0.34 0.37 0.36 0.25 0.25 0.25 0.25 0.25
0.59 0.60 0.60 0.59 0.59 0.61 0.62 0.59 0.55 0.44 0.40 0.38 0.37 0.34 0.33 0.32 0.30 0.28 0.28 0.28 0.29 0.31 0.34 0.34 0.34 0.31 0.26 0.26 0.27 0.27 0.27 0.27
0.58 0.60 0.60 0.57 0.57 0.60 0.65 0.54 0.44 0.40 0.38 0.36 0.35 0.34 0.34 0.33 0.30 0.28 0.28 0.29 0.30 0.32 0.32 0.37 0.36 0.30 0.25 0.27 0.28 0.27 0.28 0.28
0.56 0.58 0.57 0.53 0.62 0.59 0.47 0.44 0.41 0.39 0.36 0.35 0.34 0.35 0.34 0.32 0.28 0.28 0.28 0.30 0.33 0.32 0.33 0.29 0.27 0.27 0.27 0.29 0.29 0.29 0.30 0.27
0.56 0.56 0.54 0.60 0.48 0.46 0.45 0.42 0.39 0.37 0.36 0.35 0.34 0.33 0.32 0.28 0.28 0.27 0.28 0.30 0.33 0.33 0.32 0.31 0.30 0.31 0.32 0.32 0.30 0.29 0.26 0.20
0.54 0.54 0.53 0.47 0.46 0.47 0.43 0.40 0.37 0.36 0.36 0.33 0.30 0.31 0.28 0.27 0.27 0.26 0.27 0.29 0.33 0.34 0.32 0.33 0.33 0.33 0.31 0.30 0.28 0.23 0.19 0.17
0.53 0.53 0.51 0.50 0.49 0.46 0.41 0.37 0.36 0.36 0.33 0.29 0.28 0.27 0.26 0.27 0.27 0.26 0.28 0.29 0.29 0.32 0.31 0.31 0.28 0.28 0.27 0.24 0.22 0.19 0.17 0.17
Wind_Speed
7 7 8 8 9 10 11 12 14 14 17 18 17 18 17 19 21 23 25 27 28 29 30 31 32 33 34 35 36 37 39 41
8 8 9 9 9 9 11 11 14 15 15 16 17 19 21 23 24 24 25 26 28 29 30 32 34 36 37 39 40 41 43 44
7 7 7 7 7 7 8 10 11 13 16 18 20 21 21 22 24 25 26 28 29 31 33 36 38 39 40 41 42 43 44 45
3 3 4 4 4 6 8 11 12 14 16 17 19 21 22 24 25 26 28 30 32 34 36 38 40 41 41 42 43 43 45 46
3 3 4 5 7 9 11 13 13 15 17 19 20 22 23 25 27 29 32 34 36 38 39 41 42 42 42 43 44 46 47 48
4 4 5 7 9 11 12 14 15 17 18 20 22 23 25 28 30 33 35 38 40 41 42 43 43 43 44 45 46 47 48 50
5 6 6 8 9 10 11 12 14 17 20 22 24 27 29 31 34 37 39 41 43 44 45 45 43 43 44 45 47 49 51 52
7 7 9 8 9 10 12 14 16 20 22 24 27 30 32 34 37 39 41 43 44 45 45 44 43 44 46 48 50 51 51 50
8 8 8 9 10 12 14 16 18 21 24 26 30 32 34 36 39 41 42 44 45 46 45 43 43 45 47 49 51 50 49 48
9 10 10 11 12 13 15 18 20 24 27 29 32 34 35 38 40 41 43 45 46 45 44 43 45 46 50 49 49 48 45 44
11 11 12 13 13 15 18 21 23 27 30 33 34 36 37 39 40 42 44 45 46 45 44 44 45 49 49 47 45 43 41 37
13 14 14 15 16 19 22 25 27 31 32 34 36 38 38 39 41 43 45 47 47 46 45 45 48 49 47 44 41 36 33 31
15 16 17 18 20 23 26 27 31 32 33 36 38 38 39 41 43 45 47 47 48 47 46 48 49 48 44 38 34 31 30 29
17 18 20 21 23 25 28 31 32 33 35 37 38 39 40 42 45 47 48 49 49 48 48 50 48 43 38 33 31 29 29 29
20 21 22 23 25 28 32 32 32 34 36 37 38 39 41 44 47 48 49 50 49 49 48 47 43 38 32 29 28 28 29 30
22 23 24 25 29 31 31 32 33 34 36 38 39 41 43 46 48 49 50 49 49 49 46 43 36 31 28 27 26 28 30 31
24 25 26 28 30 31 31 33 34 35 37 39 40 42 45 47 48 50 50 49 48 47 44 37 31 27 26 26 27 29 29 30
25 26 27 29 31 31 32 33 34 36 38 40 42 44 46 47 49 50 50 49 47 44 39 33 29 25 24 26 27 28 28 29
26 27 28 30 31 31 32 33 35 37 39 41 43 46 47 47 50 50 49 48 44 40 34 29 25 23 24 25 26 26 27 28
Wind_Direction
249 255 259 263 265 267 271 277 280 284 289 297 298 301 303 303 303 301 300 300 300 301 302 302 303 302 303 303 301 300 299 300
259 264 266 264 266 272 278 281 282 288 290 293 297 299 301 303 306 306 305 305 304 304 303 303 303 303 303 303 302 301 300 301
263 269 265 260 267 274 285 290 291 293 297 298 300 301 304 305 307 308 307 307 306 304 303 303 303 303 303 303 303 302 302 303
226 263 271 270 273 288 297 301 301 303 304 304 306 307 306 307 308 308 309 309 308 306 305 305 305 304 303 303 303 303 303 303
237 268 288 278 292 298 303 306 307 310 309 310 310 310 308 308 308 308 309 309 309 308 307 306 306 304 303 303 303 303 304 303
233 254 281 297 298 302 306 309 305 310 311 313 312 313 311 310 309 309 309 310 309 308 307 306 305 304 303 304 304 305 304 304
252 279 298 305 309 310 314 317 315 316 315 314 314 313 311 310 310 309 309 309 309 308 307 306 305 305 305 305 305 305 304 303
252 278 301 304 311 314 319 318 318 317 315 313 314 313 312 311 311 311 311 310 310 309 308 307 306 306 306 306 306 306 306 304
261 284 296 300 306 310 315 317 317 318 318 316 317 315 313 313 313 313 313 312 312 311 308 307 306 307 307 307 307 307 306 305
260 281 291 296 301 306 311 314 315 318 319 318 318 317 317 316 316 316 315 315 314 312 310 308 308 308 309 307 307 307 307 306
263 278 285 293 298 304 311 313 313 316 317 318 319 319 318 318 318 318 318 317 316 313 311 310 310 311 310 309 308 308 307 307
265 277 285 291 296 303 309 311 312 315 316 317 318 319 319 319 319 320 320 319 318 315 312 310 310 311 310 309 308 308 308 309
270 278 285 291 295 302 308 310 312 313 314 317 318 318 319 320 321 321 321 320 319 316 313 311 311 310 308 307 307 307 309 309
272 278 285 290 295 302 307 309 310 311 313 316 317 318 319 320 321 322 321 321 319 316 313 312 312 311 308 305 304 305 308 307
274 279 284 289 295 302 305 307 309 311 313 315 316 317 319 320 321 321 321 321 319 318 316 315 312 309 307 305 304 305 308 308
276 280 284 289 297 301 304 306 309 310 313 314 315 317 319 320 321 321 321 321 321 321 319 317 315 310 306 307 305 307 308 308
278 281 285 291 297 300 303 306 308 311 312 314 315 317 318 320 321 322 322 322 321 322 320 318 315 310 308 308 308 309 310 310
279 282 287 292 297 300 303 306 309 311 313 314 315 316 318 319 321 322 322 322 321 321 320 318 314 311 309 310 312 312 313 313
282 285 289 295 298 300 303 306 309 311 313 314 315 317 318 319 321 322 322 322 321 319 318 316 315 313 312 314 315 315 315 316